Location: Unspecified
(42.7170°S, 0.0000°E)
Time: 21:24:30
(UTC+00:00)

N. Korean satellite - Pass Details

Date: 27 May 2019
Orbit: 455 x 510 km, 97.2° (Epoch: 19 June)

Event Time Altitude Azimuth Distance (km) Brightness Sun altitude
Rises 05:38:22 0° 358° (N) 2,475 10.3 -17.6°
Reaches altitude 10° 05:40:27 10° 350° (N) 1,615 9.2 -17.2°
Maximum altitude 05:43:45 41° 278° (W) 695 6.9 -16.6°
Enters shadow 05:44:18 38° 252° (WSW) 739 6.9 -16.5°
